User: anonymous   Login
Location: Newark
(23.3970°S, 47.6010°W)
Time: 05:14:32
(UTC+00:00)
Language:

Tiros 1 - Orbit

View from above orbital plane
View from above orbital plane
View from above satellite
View from above satellite

Ground track
Ground track

The orbit data is extracted from the following two-line orbital elements,

1    29U 60002B   20057.16843211 -.00000117 +00000-0 +13550-4 0  9997
2    29 048.3794 118.5207 0023507 112.8927 247.4470 14.74342751201974
Epoch (UTC): 26 February 2020 04:02:32
Eccentricity: 0.0023507
inclination: 48.3794°
perigee height: 631 km
apogee height: 664 km
right ascension of ascending node: 118.5207°
argument of perigee: 112.8927°
revolutions per day: 14.74342751
mean anomaly at epoch: 247.4470°
orbit number at epoch: 20197

The dashed part of the orbit path shows where the satellite is in the earth's shadow,  

DLR